Temperature
23 24 25 25 25 25 23 22 21 21 21 21 21 21 21 22 22 22 22 22 21 21 21 21 20 20 20 20 19 19 19 19 18 18 18 17 17 17 17 16 16 16 16 16
23 24 25 25 25 25 24 24 23 22 21 21 21 22 21 21 21 21 21 21 21 21 21 20 20 20 19 19 19 19 18 18 18 18 17 17 17 17 16 16 16 16 16 16
21 22 23 22 23 23 23 23 23 22 21 21 20 21 21 21 21 21 21 21 21 21 21 20 20 20 19 19 19 18 18 18 18 17 17 17 17 16 16 16 16 15 15 15
19 21 22 21 22 23 23 22 22 21 21 21 21 21 22 22 21 21 21 20 20 20 20 20 19 19 19 19 18 18 18 17 17 17 17 17 16 16 16 16 16 15 15 15
18 19 20 21 23 23 22 21 22 21 21 21 21 21 20 21 21 21 21 21 20 20 20 19 19 19 18 18 18 17 17 17 17 16 16 16 16 16 16 16 15 15 15 15
18 20 20 20 22 23 22 20 21 21 20 20 20 18 19 21 21 21 20 20 20 20 19 19 19 18 18 18 18 17 17 17 17 16 16 16 16 16 15 15 15 15 15 15
18 18 18 20 22 22 20 19 21 21 21 20 19 19 21 21 21 20 20 20 20 19 19 18 18 18 18 18 17 17 17 17 16 16 16 16 16 15 15 15 15 15 14 14
17 17 18 20 20 20 19 21 21 21 21 21 21 21 20 20 20 20 19 19 19 19 18 18 18 18 17 17 17 17 16 16 16 16 16 15 15 15 15 15 14 14 14 14
16 17 18 20 20 21 21 21 21 21 21 21 20 20 20 20 20 20 19 19 19 18 18 17 17 17 17 17 17 16 16 16 16 16 15 15 15 15 15 14 14 14 14 14
16 17 18 20 21 21 21 21 21 21 21 21 20 20 20 19 19 19 19 18 18 18 18 17 17 17 17 16 16 16 16 16 15 15 15 15 15 14 14 14 14 14 14 14
16 17 18 20 20 21 21 21 21 20 20 20 20 19 19 19 19 19 18 18 18 18 17 17 17 16 16 16 16 16 15 15 15 15 15 15 14 14 14 14 14 14 14 13
16 17 16 18 20 20 20 20 20 20 20 19 19 19 19 19 18 18 18 18 17 17 17 17 16 16 16 16 15 15 15 15 15 15 15 14 14 14 14 14 14 14 14 13
18 19 19 19 19 20 19 19 20 19 19 19 19 19 18 18 18 18 17 17 17 17 17 16 16 16 16 15 15 15 15 15 14 14 14 14 14 14 14 14 14 13 13 13
19 19 18 19 19 19 19 19 19 19 19 19 18 18 18 18 17 17 17 17 16 16 16 16 16 16 15 15 15 15 15 14 14 14 14 14 14 14 14 14 13 13 13 13
18 18 18 18 18 18 18 18 18 18 18 18 18 18 17 17 17 17 16 16 16 16 16 15 15 15 15 15 14 14 14 14 14 14 14 14 14 14 13 13 13 13 13 13
18 18 18 18 18 18 18 18 18 18 17 17 17 17 17 17 17 16 16 16 15 15 15 15 15 15 15 14 14 14 14 14 14 14 14 14 13 13 13 13 13 13 13 13
17 17 17 17 17 17 17 17 17 17 17 17 17 17 16 16 16 16 15 15 15 15 15 15 15 14 14 14 14 14 14 14 14 13 13 13 13 13 13 13 13 13 13 13
17 17 17 16 16 16 16 16 16 17 16 16 16 16 16 16 16 16 15 15 15 15 14 14 14 14 14 14 14 14 14 13 13 13 13 13 13 13 13 13 13 13 13 12
16 16 16 16 16 16 16 16 16 16 16 16 16 16 16 15 15 15 15 15 14 14 14 14 14 14 13 13 13 13 13 13 13 13 13 13 13 13 12 12 12 12 12 12
16 16 16 16 16 16 16 16 16 15 15 15 15 15 15 15 15 15 15 14 14 14 14 14 13 13 13 13 13 13 13 13 13 13 13 13 12 12 12 12 12 12 12 12
15 15 15 15 15 15 15 15 15 15 15 15 15 15 15 15 14 14 14 14 14 14 13 13 13 13 13 13 13 13 13 13 13 13 12 12 12 12 12 12 12 12 11 11
14 14 14 14 15 14 14 14 14 14 14 14 14 14 14 14 14 14 14 14 14 14 13 13 13 13 13 13 13 13 13 13 12 12 12 12 12 12 12 11 11 11 11 11
14 14 14 14 14 14 14 14 14 14 14 14 14 14 14 14 14 14 14 14 14 13 13 13 13 13 13 13 12 12 12 12 12 12 12 12 11 11 11 11 11 11 11 10
13 13 13 13 13 13 13 13 13 13 13 13 13 13 14 14 13 13 13 13 13 13 13 13 13 13 13 12 12 12 12 12 12 12 11 11 11 11 11 11 11 10 10 10
13 13 12 12 13 13 13 13 13 13 13 13 13 13 13 13 13 13 13 13 13 13 13 13 13 13 12 12 12 12 12 12 11 11 11 11 11 11 10 10 10 10 10 10
12 12 12 12 12 13 12 12 12 12 12 12 12 12 13 13 13 13 12 12 12 12 12 12 12 12 12 12 12 11 11 11 11 11 11 10 10 10 10 10 10 10 10 9
12 12 12 12 12 12 12 12 12 12 12 12 12 12 12 12 12 12 12 12 12 12 12 12 12 12 11 11 11 11 11 11 11 10 10 10 10 10 10 9 9 9 9 9
Wind_Speed
5 4 2 1 2 2 3 6 7 7 8 8 5 5 3 5 7 8 7 7 8 8 7 7 6 6 6 6 5 7 7 6 6 5 5 4 3 3 3 2 2 2 2 2
3 3 1 2 3 0 1 2 4 4 4 4 4 6 5 5 8 8 7 7 7 6 6 6 7 7 7 6 6 6 7 6 5 4 4 4 4 3 3 3 3 2 2 2
3 4 3 3 3 0 1 1 4 5 6 5 5 7 8 8 8 9 8 8 7 7 7 7 7 7 8 8 6 6 6 6 5 5 4 4 4 3 3 3 2 2 2 2
1 3 2 6 3 3 3 2 1 3 4 6 8 7 6 6 7 7 7 6 5 4 4 4 5 5 5 5 6 6 5 5 5 5 5 4 3 3 4 3 3 3 3 3
3 2 3 5 3 1 2 2 2 1 5 6 6 5 3 2 5 6 6 6 5 4 3 3 5 5 5 4 4 5 5 5 5 5 5 4 4 4 4 3 3 4 4 4
3 3 4 5 5 1 4 2 4 1 5 6 6 3 3 2 4 5 4 4 5 4 4 3 3 5 6 5 4 5 5 5 5 5 5 5 5 5 3 4 4 4 4 4
3 3 5 5 4 3 3 5 5 2 4 6 5 6 5 4 5 5 5 5 5 5 3 2 3 5 5 4 5 5 5 4 4 4 5 5 4 4 3 4 3 3 4 4
3 3 6 5 2 3 6 4 1 2 3 5 5 5 5 6 6 5 4 4 5 4 2 1 2 4 4 4 5 4 3 3 4 4 4 4 4 3 3 3 3 3 3 3
5 6 5 1 2 3 4 2 1 2 3 6 6 6 5 5 6 5 4 4 5 5 3 1 2 3 3 3 3 2 3 3 3 3 3 3 4 4 3 3 3 3 3 3
0 2 2 1 1 1 2 2 2 3 4 6 6 6 5 5 4 4 3 3 3 5 5 4 2 3 4 4 3 3 3 4 3 3 3 3 3 4 4 4 4 4 4 4
1 3 3 3 1 1 2 3 3 3 4 4 6 5 5 4 4 4 2 2 3 3 4 5 4 3 3 3 3 3 3 4 4 4 4 3 3 3 5 5 6 7 6 5
5 6 3 4 3 2 2 2 2 4 3 2 4 5 4 4 4 4 3 2 2 2 3 4 4 4 3 3 3 3 2 3 4 4 3 3 3 2 3 4 6 8 8 7
5 4 4 3 1 1 2 2 2 3 3 2 2 4 5 4 3 3 3 3 3 3 3 3 4 3 4 4 4 4 3 3 3 3 4 3 3 3 3 4 3 4 6 7
2 1 0 1 1 0 2 1 2 2 2 3 3 4 4 3 4 4 4 5 4 3 2 2 3 3 4 4 4 4 4 4 4 4 4 4 5 5 4 4 4 3 4 7
3 2 3 2 1 1 0 1 2 2 1 1 3 4 4 4 4 5 4 4 3 3 2 2 3 3 3 4 4 4 3 3 3 3 4 4 4 4 4 4 4 4 3 4
2 1 1 1 2 1 1 0 1 1 1 1 2 3 5 5 4 4 3 4 4 4 4 4 4 5 4 4 4 4 4 5 4 3 3 3 4 4 4 4 5 5 5 5
1 2 2 2 3 3 3 3 3 3 3 3 4 4 3 3 3 3 3 4 4 5 5 5 5 5 4 5 5 4 4 4 5 3 4 4 4 4 5 5 5 5 6 6
5 6 5 4 4 3 3 3 3 2 2 3 3 3 3 4 5 5 5 4 2 2 4 5 5 5 4 5 5 4 4 4 4 4 4 4 4 4 4 4 5 5 4 4
3 3 3 4 4 4 2 2 2 2 3 3 3 5 5 5 5 5 4 4 4 4 5 5 6 5 5 5 5 4 4 4 4 4 4 4 4 3 3 3 4 4 4 3
0 0 1 1 1 1 1 1 2 2 3 3 3 4 4 4 4 4 4 5 5 6 5 5 5 5 5 5 5 4 4 4 4 4 4 3 3 3 3 3 3 3 4 4
1 1 1 1 1 2 2 2 2 3 3 3 4 5 5 5 4 4 4 4 5 4 4 5 4 3 3 4 4 3 3 3 3 3 3 3 3 3 3 3 3 3 3 3
2 2 2 2 2 3 3 2 2 3 3 3 4 5 5 4 4 4 4 5 4 4 3 3 3 3 3 3 2 2 2 3 3 2 3 3 2 2 2 2 2 2 2 1
3 3 3 2 2 3 3 3 2 3 3 4 4 5 6 5 4 4 4 4 3 4 3 2 3 3 3 2 2 2 2 2 2 2 2 2 2 2 2 2 1 1 1 1
3 3 3 3 2 1 2 3 3 2 2 2 3 4 4 3 2 3 3 4 4 4 3 3 4 4 3 1 1 1 1 1 1 2 2 1 1 1 1 1 1 1 1 1
3 3 3 3 1 2 2 2 2 1 1 0 1 1 1 2 3 3 2 3 4 4 2 2 3 3 2 1 1 1 1 1 2 2 2 2 2 2 2 2 2 2 1 1
3 3 3 3 2 2 2 1 1 1 1 1 0 1 1 1 2 2 2 2 3 3 2 1 2 2 2 2 2 2 2 1 2 2 3 3 3 3 2 2 2 2 2 2
4 3 2 2 2 1 0 1 2 1 1 2 2 1 1 1 2 2 2 2 2 2 2 2 2 2 2 2 3 3 3 3 3 3 3 2 2 2 2 2 2 2 2 2
Wind_Direction
222 223 191 227 244 185 170 177 183 208 205 222 197 165 176 165 140 133 138 148 157 164 171 170 168 172 175 180 181 175 168 175 190 195 195 196 193 195 198 204 211 215 217 230
323 298 341 339 331 38 118 151 169 163 231 233 179 128 122 149 144 142 146 152 155 167 173 173 174 178 179 179 181 172 172 185 193 192 192 195 199 197 198 208 217 204 206 217
285 304 26 324 297 186 126 147 168 196 220 179 153 155 165 166 160 162 163 162 167 174 183 187 186 179 180 185 178 173 180 186 188 187 192 201 207 206 214 218 217 217 221 211
178 28 248 246 258 108 100 50 96 165 173 168 170 173 167 156 155 154 152 154 163 168 169 167 165 166 165 164 167 176 185 192 192 190 201 207 203 212 222 217 217 225 233 232
123 161 265 289 303 98 103 344 349 122 146 140 115 83 43 92 130 147 151 149 152 152 147 141 148 156 142 142 156 167 180 191 200 198 201 204 210 221 224 215 223 229 233 230
136 160 223 252 284 251 96 339 309 140 155 147 116 122 238 202 127 113 123 133 126 115 103 113 141 149 144 153 162 184 196 199 199 197 198 208 217 223 219 211 223 231 241 237
165 199 251 269 299 72 135 234 271 166 149 143 159 187 193 149 124 118 119 129 124 119 124 159 165 149 157 166 194 207 200 193 197 202 206 208 210 215 218 215 221 234 247 250
157 183 244 283 37 152 214 228 204 137 156 139 143 136 134 136 136 130 121 130 135 136 146 194 157 143 157 202 215 205 183 185 199 206 210 206 199 215 213 205 215 237 251 268
183 211 236 259 166 195 178 158 151 141 134 131 137 136 139 149 149 148 147 150 154 150 154 186 160 150 170 234 231 189 183 196 207 210 213 204 200 209 213 209 215 231 234 249
135 266 269 276 118 64 108 113 124 132 130 128 145 151 150 153 157 155 152 154 153 151 160 186 191 177 189 212 199 178 201 219 217 210 217 221 217 209 208 215 219 226 226 235
275 282 338 337 42 111 71 80 85 93 106 131 131 139 144 150 160 158 152 152 154 166 177 186 181 200 215 200 179 187 211 218 217 215 214 225 236 232 223 224 217 215 224 220
233 238 207 255 262 137 109 92 93 91 76 104 134 144 146 162 175 167 164 160 170 183 186 190 185 196 217 202 187 193 218 229 222 218 219 218 225 265 275 246 238 226 220 213
221 231 207 234 271 101 119 121 109 115 133 141 142 148 151 165 178 172 174 173 180 187 191 193 190 208 223 211 197 199 214 225 223 218 219 220 218 222 256 284 275 252 243 229
232 163 2 293 279 254 124 127 128 121 146 165 164 155 148 150 153 168 190 198 200 188 182 188 196 215 223 210 204 209 216 223 223 226 223 221 221 226 227 235 253 270 272 250
254 211 211 255 310 352 61 102 76 55 27 200 162 157 157 161 177 196 205 191 174 164 184 207 228 241 229 205 204 211 217 228 228 229 230 228 228 227 228 231 229 238 252 259
252 287 266 261 257 267 281 165 163 200 213 203 169 178 182 180 183 191 185 173 171 196 214 223 238 243 226 207 206 213 223 235 237 231 234 237 233 229 228 224 224 226 228 231
223 262 257 261 264 274 273 246 215 210 221 209 203 194 183 173 165 181 194 197 199 213 221 225 238 241 225 214 210 218 226 232 237 240 238 237 234 233 231 225 221 227 233 226
207 213 210 212 232 253 278 276 251 212 214 217 206 191 186 188 193 205 207 206 212 246 248 242 238 235 231 222 217 218 220 226 227 232 239 239 239 236 232 229 226 231 241 236
197 204 227 227 215 207 218 242 260 245 228 211 197 204 207 209 204 203 195 189 204 236 251 254 244 237 236 231 224 218 221 228 235 238 238 243 245 237 230 228 224 227 228 224
59 74 283 194 171 183 205 232 245 253 245 228 210 203 206 215 208 194 191 208 220 225 229 234 239 242 237 228 222 218 220 226 233 238 237 234 235 235 227 224 224 229 230 225
3 350 356 331 308 293 259 248 242 254 252 236 214 209 210 216 212 198 194 229 251 237 226 224 226 235 231 224 220 217 216 221 226 226 223 226 230 232 230 221 218 225 230 230
326 322 318 311 309 302 288 274 261 258 254 243 231 222 215 218 219 221 219 222 231 221 215 217 220 215 209 204 198 202 211 212 212 211 211 211 208 212 220 215 216 222 226 222
313 315 317 298 269 267 286 292 283 273 255 232 231 225 217 217 208 204 234 241 218 206 199 208 201 186 185 181 187 197 206 201 195 196 202 196 191 191 187 181 184 177 178 192
323 311 302 295 290 305 302 297 294 282 261 254 245 227 206 202 225 229 216 205 199 190 189 197 187 177 170 174 172 184 190 162 158 164 169 174 158 135 127 125 124 111 105 113
313 305 311 311 278 245 251 275 304 312 336 0 338 305 225 189 193 207 194 180 174 169 176 184 174 162 155 136 137 135 135 143 146 136 119 108 113 114 110 113 116 113 96 88
303 296 288 276 247 228 216 203 194 219 152 115 33 9 37 91 136 133 135 146 141 137 138 146 138 130 140 134 125 128 124 118 107 106 109 116 116 113 106 104 104 109 112 114
309 313 314 325 329 301 164 131 136 152 168 160 162 169 138 123 118 118 119 115 116 115 111 110 110 114 111 109 107 104 98 98 102 107 112 112 113 112 110 109 105 99 93 109
Height
1474 1469 1469 1471 1471 1471 1477 1483 1493 1491 1488 1482 1477 1477 1478 1478 1480 1482 1483 1485 1486 1488 1490 1492 1493 1495 1496 1497 1499 1500 1501 1502 1502 1503 1504 1504 1505 1505 1505 1505 1505 1505 1505 1505
1475 1468 1468 1471 1469 1469 1471 1473 1478 1482 1483 1475 1474 1475 1478 1479 1480 1481 1482 1484 1485 1487 1489 1490 1491 1493 1494 1495 1496 1498 1498 1499 1500 1501 1502 1502 1502 1502 1502 1502 1502 1502 1502 1502
1488 1476 1473 1483 1474 1472 1473 1471 1474 1481 1479 1473 1475 1475 1475 1477 1478 1480 1481 1482 1484 1485 1486 1487 1489 1490 1491 1493 1494 1495 1496 1497 1497 1498 1499 1499 1499 1499 1499 1499 1499 1499 1499 1499
1490 1486 1497 1484 1467 1466 1469 1470 1469 1470 1470 1470 1471 1472 1473 1475 1477 1478 1479 1480 1481 1482 1483 1485 1487 1488 1490 1491 1492 1493 1494 1494 1495 1496 1496 1497 1497 1496 1496 1496 1496 1496 1496 1496
1494 1497 1492 1478 1468 1466 1471 1475 1470 1470 1469 1470 1471 1473 1475 1476 1476 1476 1477 1478 1480 1481 1483 1483 1484 1486 1488 1489 1490 1491 1491 1492 1492 1493 1493 1494 1494 1493 1494 1494 1493 1493 1493 1493
1490 1494 1497 1482 1466 1463 1468 1479 1469 1468 1468 1469 1470 1479 1478 1475 1475 1476 1477 1478 1479 1481 1482 1483 1483 1485 1486 1487 1487 1488 1488 1489 1490 1490 1491 1491 1491 1491 1491 1491 1490 1490 1490 1490
1489 1493 1487 1471 1464 1463 1481 1481 1469 1467 1467 1467 1469 1471 1472 1473 1474 1475 1476 1478 1479 1480 1481 1481 1482 1482 1483 1484 1484 1484 1485 1486 1487 1487 1488 1488 1488 1488 1488 1488 1487 1487 1487 1486
1488 1493 1489 1466 1465 1470 1471 1466 1466 1466 1466 1466 1467 1469 1471 1472 1473 1474 1475 1477 1477 1478 1479 1480 1480 1480 1481 1482 1482 1482 1483 1483 1483 1484 1484 1485 1485 1485 1485 1485 1484 1483 1483 1482
1480 1480 1468 1464 1464 1464 1463 1464 1464 1464 1464 1465 1466 1467 1469 1470 1471 1473 1473 1474 1476 1476 1476 1477 1478 1479 1479 1480 1480 1480 1480 1480 1480 1480 1481 1481 1481 1481 1481 1481 1480 1480 1479 1478
1473 1469 1465 1464 1463 1463 1462 1462 1463 1463 1464 1465 1465 1465 1467 1468 1470 1471 1472 1472 1473 1473 1474 1475 1476 1477 1478 1478 1478 1478 1477 1477 1477 1477 1477 1477 1477 1477 1477 1477 1476 1476 1475 1475
1471 1467 1464 1462 1462 1462 1462 1462 1462 1462 1463 1463 1463 1464 1465 1466 1468 1469 1470 1471 1471 1471 1472 1472 1472 1473 1474 1475 1475 1474 1474 1473 1473 1473 1473 1473 1473 1473 1473 1473 1473 1472 1472 1472
1470 1465 1465 1463 1462 1462 1462 1462 1462 1461 1462 1462 1463 1463 1464 1465 1466 1467 1468 1468 1468 1468 1469 1469 1470 1470 1471 1472 1471 1471 1470 1470 1469 1469 1469 1469 1469 1469 1469 1469 1469 1468 1468 1468
1462 1462 1462 1462 1462 1461 1460 1460 1460 1460 1461 1461 1462 1463 1463 1464 1464 1465 1465 1465 1465 1465 1465 1466 1467 1467 1468 1468 1468 1468 1467 1466 1466 1466 1466 1465 1466 1466 1465 1465 1465 1464 1464 1464
1460 1459 1459 1459 1460 1459 1459 1459 1459 1459 1459 1459 1460 1461 1461 1461 1462 1462 1462 1463 1463 1463 1463 1463 1463 1463 1464 1465 1465 1465 1464 1463 1463 1462 1462 1462 1462 1462 1461 1461 1460 1459 1460 1460
1457 1457 1457 1457 1458 1458 1458 1458 1457 1457 1456 1457 1457 1458 1458 1458 1458 1459 1459 1460 1460 1460 1460 1460 1460 1460 1461 1461 1461 1461 1460 1460 1459 1459 1459 1459 1458 1458 1457 1457 1456 1456 1456 1456
1455 1455 1455 1455 1455 1455 1455 1455 1455 1454 1454 1454 1454 1454 1455 1455 1455 1456 1456 1456 1456 1456 1456 1456 1455 1456 1457 1457 1457 1457 1457 1456 1456 1456 1455 1454 1454 1454 1453 1453 1452 1452 1452 1452
1452 1452 1452 1452 1452 1452 1452 1452 1452 1451 1451 1451 1451 1452 1452 1452 1452 1452 1452 1452 1452 1452 1452 1452 1451 1452 1452 1453 1453 1453 1452 1452 1452 1452 1451 1450 1450 1450 1449 1449 1448 1448 1448 1448
1449 1449 1449 1449 1450 1449 1449 1449 1449 1448 1448 1448 1448 1448 1448 1448 1448 1448 1448 1449 1449 1448 1448 1447 1447 1448 1448 1448 1448 1448 1448 1448 1448 1447 1447 1446 1446 1446 1445 1445 1445 1445 1444 1444
1444 1445 1445 1446 1446 1446 1445 1446 1445 1445 1445 1444 1444 1445 1445 1445 1445 1445 1445 1445 1444 1444 1444 1444 1444 1444 1444 1444 1444 1444 1444 1443 1443 1443 1442 1442 1442 1441 1441 1441 1441 1441 1441 1440
1441 1441 1441 1442 1442 1442 1441 1441 1441 1441 1441 1441 1440 1440 1441 1441 1441 1441 1440 1441 1441 1440 1440 1440 1440 1439 1439 1439 1440 1440 1439 1439 1438 1438 1438 1438 1438 1437 1437 1437 1437 1437 1437 1437
1439 1439 1438 1438 1438 1438 1438 1437 1437 1436 1436 1436 1436 1436 1436 1437 1437 1437 1436 1436 1437 1437 1436 1436 1436 1435 1435 1435 1436 1435 1435 1435 1435 1434 1434 1434 1434 1434 1434 1434 1434 1434 1434 1434
1437 1436 1435 1435 1434 1434 1434 1433 1432 1431 1431 1431 1431 1431 1432 1432 1433 1433 1433 1433 1433 1433 1432 1432 1432 1432 1432 1432 1432 1432 1432 1432 1431 1431 1431 1431 1431 1431 1431 1431 1431 1431 1431 1431
1434 1433 1432 1431 1431 1430 1429 1429 1428 1427 1426 1426 1426 1427 1427 1428 1429 1429 1429 1430 1429 1429 1429 1429 1429 1429 1430 1430 1429 1429 1429 1429 1429 1429 1429 1429 1429 1429 1428 1428 1428 1428 1428 1428
1432 1430 1429 1429 1428 1427 1426 1425 1424 1424 1423 1423 1423 1424 1424 1425 1426 1426 1427 1426 1426 1426 1426 1427 1427 1428 1428 1428 1427 1427 1427 1427 1427 1427 1427 1427 1427 1427 1427 1427 1426 1426 1426 1426
1430 1428 1427 1426 1425 1424 1423 1422 1422 1422 1421 1421 1421 1422 1422 1423 1423 1424 1424 1424 1424 1424 1424 1425 1426 1426 1426 1426 1426 1426 1426 1426 1426 1426 1426 1425 1425 1425 1425 1425 1425 1425 1425 1424
1427 1426 1425 1424 1423 1422 1421 1420 1420 1420 1420 1420 1420 1421 1421 1421 1422 1422 1422 1423 1423 1423 1423 1424 1424 1424 1425 1425 1425 1425 1425 1425 1425 1425 1424 1424 1424 1424 1424 1424 1424 1423 1423 1422
1425 1424 1423 1422 1421 1420 1419 1418 1418 1419 1419 1419 1420 1420 1421 1421 1421 1421 1422 1422 1422 1423 1423 1423 1423 1423 1424 1424 1424 1424 1424 1424 1424 1424 1424 1424 1424 1424 1423 1423 1423 1422 1422 1422